Location: Unspecified
(52.1384°N, 8.6525°W)
Time: 17:02:55
(UTC+00:00)

N. Korean satellite - Pass Details

Date: 29 October 2020
Orbit: 453 x 503 km, 97.2° (Epoch: 04 December)

Event Time Altitude Azimuth Distance (km) Brightness Sun altitude
Rises 06:03:32 0° 16° (NNE) 2,488 10.3 -13.0°
Reaches altitude 10° 06:05:36 10° 20° (NNE) 1,605 9.4 -12.6°
Maximum altitude 06:09:00 58° 101° (E) 535 7.1 -12.1°
Drops below altitude 10° 06:12:22 10° 182° (S) 1,589 9.2 -11.6°
Sets 06:14:24 0° 186° (S) 2,459 10.2 -11.3°
